This is the latest recevied weather packets stored in our database for station/object KF5WCW-1. If no packets are shown the sender has not sent any weather packets the latest 10 day(s).
| Time | Temp. | Humidity | Pressure | Rain* | Wind** | Luminosity | Snow |
|---|---|---|---|---|---|---|---|
| 1777821074 | 7.22° C | 57% | 0 hPa | 0 mm | - | - | - |
| 1777820774 | 7.22° C | 63% | 0 hPa | 0 mm | - | - | - |
| 1777820474 | 6.67° C | 65% | 0 hPa | 0 mm | - | - | - |
| 1777820174 | 6.11° C | 66% | 0 hPa | 0 mm | - | - | - |
| 1777819874 | 5.56° C | 68% | 0 hPa | 0 mm | - | - | - |
| 1777819574 | 5° C | 68% | 0 hPa | 0 mm | - | - | - |
| 1777819274 | 5° C | 70% | 0 hPa | 0 mm | - | - | - |
| 1777818974 | 4.44° C | 74% | 0 hPa | 0 mm | - | - | - |
| 1777818674 | 3.89° C | 77% | 0 hPa | 0 mm | - | - | - |
| 1777818374 | 3.89° C | 76% | 0 hPa | 0 mm | - | - | - |
| 1777818074 | 3.33° C | 79% | 0 hPa | 0 mm | - | - | - |
| 1777817774 | 3.33° C | 80% | 0 hPa | 0 mm | - | - | - |
| 1777817474 | 3.33° C | 82% | 0 hPa | 0 mm | - | - | - |
| 1777817174 | 2.78° C | 82% | 0 hPa | 0 mm | - | - | - |
| 1777816874 | 2.78° C | 83% | 0 hPa | 0 mm | - | - | - |
| 1777816574 | 2.78° C | 84% | 0 hPa | 0 mm | - | - | - |
| 1777816274 | 2.78° C | 83% | 0 hPa | 0 mm | - | - | - |
| 1777815974 | 2.78° C | 83% | 0 hPa | 0 mm | - | - | - |
| 1777815674 | 2.22° C | 84% | 0 hPa | 0 mm | - | - | - |
| 1777815374 | 2.22° C | 85% | 0 hPa | 0 mm | - | - | - |
| 1777815074 | 2.22° C | 86% | 0 hPa | 0 mm | - | - | - |
| 1777814774 | 1.67° C | 87% | 0 hPa | 0 mm | - | - | - |
| 1777814474 | 1.67° C | 88% | 0 hPa | 0 mm | - | - | - |
| 1777814174 | 1.67° C | 88% | 0 hPa | 0 mm | - | - | - |
| 1777813874 | 1.67° C | 87% | 0 hPa | 0 mm | - | - | - |
* Rain latest hour (hover to see other rain measurements)
** Current wind speed in m/s (hover to see current wind gust speed)